Location: Andrest
(43.3200°N, 0.0641°E)
Time: 05:42:47
(UTC+00:00)

SL-8 Rocket - Pass Details

Date: 25 April 2021
Orbit: 958 x 989 km, 82.9° (Epoch: 11 May)

Event Time Altitude Azimuth Distance (km) Brightness Sun altitude
Rises 02:00:32 0° 340° (NNW) 3,701 7.5 -26.9°
Reaches altitude 10° 02:03:30 10° 328° (NNW) 2,752 6.6 -26.6°
Enters shadow 02:07:41 24° 287° (WNW) 1,922 5.3 -26.1°
